| time (UTC) | temp F | wind direction | speed MPH | gust MPH | rain 1hr in | rain 24hr in | rain mn in | humidity % | barometer mb |
| 20260831192309 | 91 | 294 | 0.0 | 0.0 | 0.00 | 0.00 | 0.00 | 53 | 1024.7 |
| 20260831191805 | 91 | 294 | 0.0 | 0.0 | 0.00 | 0.00 | 0.00 | 52 | 1025.0 |
| 20260831191301 | 91 | 300 | 0.0 | 0.0 | 0.00 | 0.00 | 0.00 | 51 | 1025.1 |
| 20260831190756 | 92 | 300 | 0.0 | 0.0 | 0.00 | 0.00 | 0.00 | 52 | 1024.9 |
| 20260831190250 | 91 | 308 | 0.0 | 0.0 | 0.00 | 0.00 | 0.00 | 51 | 1025.1 |
| 20260831185745 | 91 | 301 | 0.0 | 0.0 | 0.00 | 0.00 | 0.00 | 52 | 1025.1 |
| 20260831185241 | 91 | 293 | 1.0 | 2.0 | 0.00 | 0.00 | 0.00 | 51 | 1025.2 |
| 20260831184739 | 90 | 241 | 0.0 | 0.0 | 0.00 | 0.00 | 0.00 | 53 | 1025.3 |
| 20260831184236 | 90 | 131 | 0.0 | 0.0 | 0.00 | 0.00 | 0.00 | 53 | 1025.4 |
| 20260831183735 | 90 | 179 | 0.0 | 0.0 | 0.00 | 0.00 | 0.00 | 55 | 1025.4 |
| 20260831183230 | 89 | 256 | 0.0 | 0.0 | 0.00 | 0.00 | 0.00 | 57 | 1025.4 |
| 20260831182729 | 88 | 264 | 0.0 | 0.0 | 0.00 | 0.00 | 0.00 | 60 | 1025.3 |
| 20260831182224 | 89 | 264 | 0.0 | 0.0 | 0.00 | 0.00 | 0.00 | 57 | 1025.4 |
| 20260831181724 | 90 | 291 | 0.0 | 0.0 | 0.00 | 0.00 | 0.00 | 56 | 1025.6 |
| 20260831181220 | 89 | 300 | 0.0 | 0.0 | 0.00 | 0.00 | 0.00 | 55 | 1025.7 |
| 20260831180715 | 88 | 294 | 0.0 | 0.0 | 0.00 | 0.00 | 0.00 | 60 | 1025.7 |
| 20260831180209 | 89 | 291 | 0.0 | 0.0 | 0.00 | 0.00 | 0.00 | 61 | 1025.8 |
| 20260831175709 | 90 | 290 | 0.0 | 0.0 | 0.00 | 0.00 | 0.00 | 58 | 1025.7 |
| 20260831175206 | 90 | 290 | 0.0 | 0.0 | 0.00 | 0.00 | 0.00 | 60 | 1026.0 |
| 20260831174706 | 90 | 279 | 0.0 | 0.0 | 0.00 | 0.00 | 0.00 | 57 | 1026.2 |
| 20260831174201 | 90 | 267 | 0.0 | 0.0 | 0.00 | 0.00 | 0.00 | 58 | 1026.0 |
| 20260831173700 | 89 | 298 | 0.0 | 0.0 | 0.00 | 0.00 | 0.00 | 59 | 1025.9 |
| 20260831173155 | 91 | 252 | 0.0 | 0.0 | 0.00 | 0.00 | 0.00 | 54 | 1026.1 |
| 20260831172655 | 91 | 252 | 0.0 | 0.0 | 0.00 | 0.00 | 0.00 | 54 | 1026.1 |
| 20260831172151 | 90 | 285 | 0.0 | 0.0 | 0.00 | 0.00 | 0.00 | 59 | 1026.0 |
| 20260831171645 | 89 | 190 | 0.0 | 0.0 | 0.00 | 0.00 | 0.00 | 58 | 1026.5 |
| 20260831171143 | 89 | 268 | 0.0 | 0.0 | 0.00 | 0.00 | 0.00 | 61 | 1026.2 |
| 20260831170639 | 89 | 255 | 0.0 | 0.0 | 0.00 | 0.00 | 0.00 | 61 | 1026.1 |
| 20260831170135 | 89 | 251 | 0.0 | 0.0 | 0.00 | 0.00 | 0.00 | 59 | 1026.2 |
| 20260831165631 | 88 | 298 | 0.0 | 0.0 | 0.00 | 0.00 | 0.00 | 63 | 1026.5 |
| 20260831165127 | 87 | 298 | 0.0 | 0.0 | 0.00 | 0.00 | 0.00 | 64 | 1026.6 |
| 20260831164623 | 88 | 298 | 0.0 | 0.0 | 0.00 | 0.00 | 0.00 | 64 | 1026.5 |
| 20260831164119 | 88 | 298 | 0.0 | 0.0 | 0.00 | 0.00 | 0.00 | 63 | 1026.5 |
| 20260831163614 | 87 | 299 | 0.0 | 0.0 | 0.00 | 0.00 | 0.00 | 65 | 1026.3 |
| 20260831163109 | 88 | 299 | 0.0 | 0.0 | 0.00 | 0.00 | 0.00 | 65 | 1026.3 |
| 20260831162608 | 86 | 85 | 0.0 | 0.0 | 0.00 | 0.00 | 0.00 | 66 | 1026.7 |
| 20260831162106 | 86 | 295 | 0.0 | 0.0 | 0.00 | 0.00 | 0.00 | 69 | 1026.6 |
| 20260831161602 | 86 | 295 | 0.0 | 0.0 | 0.00 | 0.00 | 0.00 | 69 | 1026.7 |
| 20260831161059 | 87 | 295 | 0.0 | 0.0 | 0.00 | 0.00 | 0.00 | 67 | 1026.9 |
| 20260831160557 | 87 | 295 | 0.0 | 0.0 | 0.00 | 0.00 | 0.00 | 68 | 1027.0 |
| 20260831160053 | 85 | 112 | 0.0 | 0.0 | 0.00 | 0.00 | 0.00 | 68 | 1026.9 |
| 20260831155547 | 83 | 285 | 0.0 | 0.0 | 0.00 | 0.00 | 0.00 | 77 | 1027.0 |
| 20260831155043 | 83 | 285 | 0.0 | 0.0 | 0.00 | 0.00 | 0.00 | 75 | 1026.9 |
| 20260831154539 | 83 | 285 | 0.0 | 0.0 | 0.00 | 0.00 | 0.00 | 74 | 1026.9 |
| 20260831154039 | 83 | 285 | 0.0 | 0.0 | 0.00 | 0.00 | 0.00 | 75 | 1026.9 |
| 20260831153538 | 83 | 285 | 0.0 | 0.0 | 0.00 | 0.00 | 0.00 | 74 | 1027.0 |
| 20260831153035 | 83 | 285 | 0.0 | 0.0 | 0.00 | 0.00 | 0.00 | 75 | 1027.0 |
| 20260831152530 | 83 | 286 | 0.0 | 0.0 | 0.00 | 0.00 | 0.00 | 74 | 1026.9 |
| 20260831152026 | 84 | 286 | 0.0 | 0.0 | 0.00 | 0.00 | 0.00 | 74 | 1026.9 |
| 20260831151519 | 84 | 286 | 0.0 | 0.0 | 0.00 | 0.00 | 0.00 | 74 | 1027.1 |
| 20260831151019 | 84 | 285 | 0.0 | 0.0 | 0.00 | 0.00 | 0.00 | 74 | 1027.0 |
| 20260831150515 | 84 | 278 | 0.0 | 0.0 | 0.00 | 0.00 | 0.00 | 74 | 1026.9 |
| 20260831150011 | 84 | 255 | 0.0 | 0.0 | 0.00 | 0.00 | 0.00 | 74 | 1026.9 |
| 20260831145505 | 84 | 201 | 0.0 | 0.0 | 0.00 | 0.00 | 0.00 | 73 | 1026.6 |
| 20260831145000 | 84 | 244 | 0.0 | 0.0 | 0.00 | 0.00 | 0.00 | 74 | 1026.8 |
| 20260831144450 | 84 | 234 | 0.0 | 0.0 | 0.00 | 0.00 | 0.00 | 74 | 1026.7 |
| 20260831143945 | 84 | 229 | 0.0 | 0.0 | 0.00 | 0.00 | 0.00 | 72 | 1026.8 |
| 20260831143440 | 83 | 283 | 0.0 | 0.0 | 0.00 | 0.00 | 0.00 | 75 | 1026.6 |
| 20260831142936 | 82 | 255 | 0.0 | 0.0 | 0.00 | 0.00 | 0.00 | 76 | 1026.8 |
| 20260831142432 | 82 | 161 | 0.0 | 0.0 | 0.00 | 0.00 | 0.00 | 76 | 1026.7 |
| 20260831141926 | 81 | 260 | 0.0 | 0.0 | 0.00 | 0.00 | 0.00 | 79 | 1026.8 |
| 20260831141420 | 81 | 260 | 0.0 | 0.0 | 0.00 | 0.00 | 0.00 | 79 | 1026.9 |
| 20260831140915 | 81 | 230 | 0.0 | 0.0 | 0.00 | 0.00 | 0.00 | 78 | 1026.7 |
| 20260831140410 | 81 | 232 | 0.0 | 0.0 | 0.00 | 0.00 | 0.00 | 78 | 1026.7 |
| 20260831135909 | 81 | 252 | 0.0 | 0.0 | 0.00 | 0.00 | 0.00 | 79 | 1026.7 |
| 20260831135409 | 80 | 248 | 0.0 | 0.0 | 0.00 | 0.00 | 0.00 | 79 | 1026.7 |
| 20260831134904 | 80 | 247 | 0.0 | 0.0 | 0.00 | 0.00 | 0.00 | 80 | 1026.9 |
| 20260831134400 | 80 | 252 | 0.0 | 0.0 | 0.00 | 0.00 | 0.00 | 79 | 1026.8 |
| 20260831133859 | 79 | 243 | 0.0 | 0.0 | 0.00 | 0.00 | 0.00 | 80 | 1026.9 |
| 20260831133354 | 79 | 243 | 0.0 | 0.0 | 0.00 | 0.00 | 0.00 | 81 | 1027.1 |
| 20260831132849 | 79 | 242 | 0.0 | 0.0 | 0.00 | 0.00 | 0.00 | 81 | 1027.0 |
| 20260831132339 | 79 | 263 | 0.0 | 0.0 | 0.00 | 0.00 | 0.00 | 82 | 1026.8 |
| 20260831131838 | 78 | 236 | 0.0 | 0.0 | 0.00 | 0.00 | 0.00 | 82 | 1026.9 |
| 20260831131334 | 78 | 262 | 0.0 | 0.0 | 0.00 | 0.00 | 0.00 | 83 | 1026.8 |
| 20260831130829 | 77 | 259 | 0.0 | 0.0 | 0.00 | 0.00 | 0.00 | 83 | 1026.8 |
| 20260831130325 | 77 | 248 | 0.0 | 0.0 | 0.00 | 0.00 | 0.00 | 84 | 1027.0 |
| 20260831125824 | 76 | 264 | 0.0 | 0.0 | 0.00 | 0.00 | 0.00 | 85 | 1027.0 |
| 20260831125320 | 76 | 264 | 0.0 | 0.0 | 0.00 | 0.00 | 0.00 | 85 | 1026.8 |
| 20260831124819 | 75 | 264 | 0.0 | 0.0 | 0.00 | 0.00 | 0.00 | 86 | 1027.1 |
| 20260831124316 | 75 | 264 | 0.0 | 0.0 | 0.00 | 0.00 | 0.00 | 86 | 1027.0 |
| 20260831123815 | 75 | 264 | 0.0 | 0.0 | 0.00 | 0.00 | 0.00 | 87 | 1027.0 |
| 20260831123314 | 75 | 264 | 0.0 | 0.0 | 0.00 | 0.00 | 0.00 | 87 | 1026.8 |
| 20260831122809 | 75 | 263 | 0.0 | 0.0 | 0.00 | 0.00 | 0.00 | 87 | 1026.6 |
| 20260831122306 | 74 | 263 | 0.0 | 0.0 | 0.00 | 0.00 | 0.00 | 87 | 1026.8 |
| 20260831121804 | 74 | 263 | 0.0 | 0.0 | 0.00 | 0.00 | 0.00 | 88 | 1026.7 |
| 20260831121301 | 74 | 267 | 0.0 | 0.0 | 0.00 | 0.00 | 0.00 | 89 | 1026.6 |
| 20260831120756 | 74 | 267 | 0.0 | 0.0 | 0.00 | 0.00 | 0.00 | 89 | 1026.6 |
| 20260831120251 | 73 | 267 | 0.0 | 0.0 | 0.00 | 0.00 | 0.00 | 89 | 1026.7 |
| 20260831115746 | 73 | 267 | 0.0 | 0.0 | 0.00 | 0.00 | 0.00 | 89 | 1026.3 |
| 20260831115242 | 73 | 267 | 0.0 | 0.0 | 0.00 | 0.00 | 0.00 | 89 | 1026.2 |
| 20260831114741 | 73 | 267 | 0.0 | 0.0 | 0.00 | 0.00 | 0.00 | 89 | 1026.3 |
| 20260831114241 | 73 | 267 | 0.0 | 0.0 | 0.00 | 0.00 | 0.00 | 88 | 1026.3 |
| 20260831113736 | 73 | 267 | 0.0 | 0.0 | 0.00 | 0.00 | 0.00 | 89 | 1026.1 |
| 20260831113231 | 73 | 267 | 0.0 | 0.0 | 0.00 | 0.00 | 0.00 | 89 | 1026.2 |
| 20260831112730 | 73 | 267 | 0.0 | 0.0 | 0.00 | 0.00 | 0.00 | 89 | 1026.0 |
| 20260831112226 | 73 | 267 | 0.0 | 0.0 | 0.00 | 0.00 | 0.00 | 88 | 1026.0 |
| 20260831111721 | 73 | 267 | 0.0 | 0.0 | 0.00 | 0.00 | 0.00 | 88 | 1025.9 |
| 20260831111217 | 73 | 267 | 0.0 | 0.0 | 0.00 | 0.00 | 0.00 | 88 | 1025.9 |
| 20260831110713 | 73 | 267 | 0.0 | 0.0 | 0.00 | 0.00 | 0.00 | 88 | 1025.8 |
| 20260831110208 | 73 | 267 | 0.0 | 0.0 | 0.00 | 0.00 | 0.00 | 88 | 1025.9 |
| 20260831105706 | 73 | 267 | 0.0 | 0.0 | 0.00 | 0.00 | 0.00 | 88 | 1025.8 |
| 20260831105202 | 73 | 267 | 0.0 | 0.0 | 0.00 | 0.00 | 0.00 | 88 | 1026.0 |
| 20260831104656 | 73 | 267 | 0.0 | 0.0 | 0.00 | 0.00 | 0.00 | 88 | 1025.8 |
| 20260831104153 | 73 | 267 | 0.0 | 0.0 | 0.00 | 0.00 | 0.00 | 88 | 1025.9 |
| 20260831103648 | 73 | 267 | 0.0 | 0.0 | 0.00 | 0.00 | 0.00 | 88 | 1025.5 |
| 20260831103143 | 73 | 267 | 0.0 | 0.0 | 0.00 | 0.00 | 0.00 | 88 | 1025.7 |
| 20260831102643 | 74 | 267 | 0.0 | 0.0 | 0.00 | 0.00 | 0.00 | 88 | 1025.7 |
| 20260831102138 | 74 | 267 | 0.0 | 0.0 | 0.00 | 0.00 | 0.00 | 88 | 1025.8 |
| 20260831101633 | 74 | 267 | 0.0 | 0.0 | 0.00 | 0.00 | 0.00 | 88 | 1025.7 |
| 20260831101129 | 74 | 267 | 0.0 | 0.0 | 0.00 | 0.00 | 0.00 | 88 | 1025.5 |
| 20260831100625 | 74 | 267 | 0.0 | 0.0 | 0.00 | 0.00 | 0.00 | 88 | 1025.5 |
| 20260831100121 | 74 | 267 | 0.0 | 0.0 | 0.00 | 0.00 | 0.00 | 88 | 1025.4 |
| 20260831095619 | 74 | 267 | 0.0 | 0.0 | 0.00 | 0.00 | 0.00 | 88 | 1025.3 |
| 20260831095114 | 74 | 267 | 0.0 | 0.0 | 0.00 | 0.00 | 0.00 | 88 | 1025.3 |
| 20260831094609 | 74 | 267 | 0.0 | 0.0 | 0.00 | 0.00 | 0.00 | 88 | 1025.3 |
| 20260831094106 | 74 | 267 | 0.0 | 0.0 | 0.00 | 0.00 | 0.00 | 87 | 1025.3 |
| 20260831093601 | 74 | 267 | 0.0 | 0.0 | 0.00 | 0.00 | 0.00 | 87 | 1025.4 |
| 20260831093057 | 74 | 267 | 0.0 | 0.0 | 0.00 | 0.00 | 0.00 | 87 | 1025.3 |
| 20260831092553 | 74 | 267 | 0.0 | 0.0 | 0.00 | 0.00 | 0.00 | 87 | 1025.3 |
| 20260831092048 | 74 | 267 | 0.0 | 0.0 | 0.00 | 0.00 | 0.00 | 87 | 1025.2 |
| 20260831091542 | 74 | 267 | 0.0 | 0.0 | 0.00 | 0.00 | 0.00 | 87 | 1025.4 |
| 20260831091038 | 74 | 267 | 0.0 | 0.0 | 0.00 | 0.00 | 0.00 | 87 | 1025.4 |
| 20260831090533 | 74 | 267 | 0.0 | 0.0 | 0.00 | 0.00 | 0.00 | 87 | 1025.1 |
| 20260831090029 | 74 | 267 | 0.0 | 0.0 | 0.00 | 0.00 | 0.00 | 87 | 1025.3 |
| 20260831085524 | 74 | 267 | 0.0 | 0.0 | 0.00 | 0.00 | 0.00 | 87 | 1025.2 |
| 20260831085019 | 74 | 267 | 0.0 | 0.0 | 0.00 | 0.00 | 0.00 | 87 | 1025.1 |
| 20260831084515 | 74 | 267 | 0.0 | 0.0 | 0.00 | 0.00 | 0.00 | 87 | 1025.4 |
| 20260831084011 | 74 | 267 | 0.0 | 0.0 | 0.00 | 0.00 | 0.00 | 87 | 1025.3 |
| 20260831083506 | 74 | 267 | 0.0 | 0.0 | 0.00 | 0.00 | 0.00 | 87 | 1025.0 |
| 20260831083000 | 74 | 267 | 0.0 | 0.0 | 0.00 | 0.00 | 0.00 | 87 | 1024.9 |
| 20260831082500 | 75 | 267 | 0.0 | 0.0 | 0.00 | 0.00 | 0.00 | 87 | 1025.0 |
| 20260831081955 | 75 | 267 | 0.0 | 0.0 | 0.00 | 0.00 | 0.00 | 87 | 1024.9 |
| 20260831081450 | 75 | 267 | 0.0 | 0.0 | 0.00 | 0.00 | 0.00 | 86 | 1024.9 |
| 20260831080946 | 75 | 267 | 0.0 | 0.0 | 0.00 | 0.00 | 0.00 | 86 | 1024.9 |
| 20260831080441 | 75 | 267 | 0.0 | 0.0 | 0.00 | 0.00 | 0.00 | 86 | 1024.9 |
| 20260831075936 | 75 | 267 | 0.0 | 0.0 | 0.00 | 0.00 | 0.00 | 86 | 1024.9 |
| 20260831075432 | 75 | 267 | 0.0 | 0.0 | 0.00 | 0.00 | 0.00 | 86 | 1024.9 |
| 20260831074927 | 75 | 267 | 0.0 | 0.0 | 0.00 | 0.00 | 0.00 | 86 | 1024.7 |
| 20260831074427 | 75 | 267 | 0.0 | 0.0 | 0.00 | 0.00 | 0.00 | 86 | 1024.8 |
| 20260831073921 | 75 | 267 | 0.0 | 0.0 | 0.00 | 0.00 | 0.00 | 86 | 1024.6 |
| 20260831073421 | 75 | 267 | 0.0 | 0.0 | 0.00 | 0.00 | 0.00 | 86 | 1024.6 |
| 20260831072915 | 75 | 267 | 0.0 | 0.0 | 0.00 | 0.00 | 0.00 | 86 | 1024.8 |
| 20260831072411 | 75 | 267 | 0.0 | 0.0 | 0.00 | 0.00 | 0.00 | 86 | 1024.6 |
| 20260831071908 | 75 | 267 | 0.0 | 0.0 | 0.00 | 0.00 | 0.00 | 86 | 1025.0 |
| 20260831071407 | 75 | 267 | 0.0 | 0.0 | 0.00 | 0.00 | 0.00 | 85 | 1024.8 |
| 20260831070907 | 75 | 267 | 0.0 | 0.0 | 0.00 | 0.00 | 0.00 | 85 | 1024.9 |
| 20260831070406 | 75 | 267 | 0.0 | 0.0 | 0.00 | 0.00 | 0.00 | 86 | 1024.8 |
| 20260831065905 | 75 | 267 | 0.0 | 0.0 | 0.00 | 0.00 | 0.00 | 85 | 1024.5 |
| 20260831065403 | 75 | 267 | 0.0 | 0.0 | 0.00 | 0.00 | 0.00 | 85 | 1024.9 |
| 20260831064859 | 76 | 267 | 0.0 | 0.0 | 0.00 | 0.00 | 0.00 | 85 | 1024.9 |
| 20260831064354 | 76 | 267 | 0.0 | 0.0 | 0.00 | 0.00 | 0.00 | 85 | 1024.7 |
| 20260831063849 | 76 | 267 | 0.0 | 0.0 | 0.00 | 0.00 | 0.00 | 86 | 1024.7 |
| 20260831063344 | 76 | 267 | 0.0 | 0.0 | 0.00 | 0.00 | 0.00 | 85 | 1024.8 |
| 20260831062844 | 76 | 267 | 0.0 | 0.0 | 0.00 | 0.00 | 0.00 | 85 | 1025.0 |
| 20260831062339 | 76 | 267 | 0.0 | 0.0 | 0.00 | 0.00 | 0.00 | 85 | 1025.0 |
| 20260831061838 | 76 | 267 | 0.0 | 0.0 | 0.00 | 0.00 | 0.00 | 85 | 1024.9 |
| 20260831061337 | 76 | 267 | 0.0 | 0.0 | 0.00 | 0.00 | 0.00 | 85 | 1025.2 |
| 20260831060834 | 76 | 267 | 0.0 | 0.0 | 0.00 | 0.00 | 0.00 | 85 | 1025.2 |
| 20260831060334 | 76 | 267 | 0.0 | 0.0 | 0.00 | 0.00 | 0.00 | 85 | 1025.0 |
| 20260831055833 | 76 | 267 | 0.0 | 0.0 | 0.00 | 0.00 | 0.00 | 84 | 1025.1 |
| 20260831055329 | 76 | 267 | 0.0 | 0.0 | 0.00 | 0.00 | 0.00 | 84 | 1025.1 |
| 20260831054824 | 76 | 267 | 0.0 | 0.0 | 0.00 | 0.00 | 0.00 | 84 | 1025.0 |
| 20260831054319 | 76 | 267 | 0.0 | 0.0 | 0.00 | 0.00 | 0.00 | 84 | 1024.8 |
| 20260831053818 | 76 | 267 | 0.0 | 0.0 | 0.00 | 0.00 | 0.00 | 83 | 1024.9 |
| 20260831053317 | 76 | 267 | 0.0 | 0.0 | 0.00 | 0.00 | 0.00 | 84 | 1024.9 |
| 20260831052812 | 77 | 267 | 0.0 | 0.0 | 0.00 | 0.00 | 0.00 | 83 | 1024.9 |
| 20260831052310 | 77 | 267 | 0.0 | 0.0 | 0.00 | 0.00 | 0.00 | 83 | 1024.8 |
| 20260831051809 | 77 | 267 | 0.0 | 0.0 | 0.00 | 0.00 | 0.00 | 83 | 1024.9 |
| 20260831051308 | 77 | 267 | 0.0 | 0.0 | 0.00 | 0.00 | 0.00 | 83 | 1024.8 |
| 20260831050803 | 77 | 267 | 0.0 | 0.0 | 0.00 | 0.00 | 0.00 | 83 | 1025.0 |
| 20260831050302 | 77 | 267 | 0.0 | 0.0 | 0.00 | 0.00 | 0.00 | 83 | 1024.8 |
| 20260831045757 | 77 | 267 | 0.0 | 0.0 | 0.00 | 0.00 | 0.00 | 83 | 1025.1 |
| 20260831045256 | 77 | 266 | 0.0 | 0.0 | 0.00 | 0.00 | 0.00 | 82 | 1025.0 |
| 20260831044752 | 77 | 266 | 0.0 | 0.0 | 0.00 | 0.00 | 0.00 | 82 | 1025.0 |
| 20260831044246 | 77 | 267 | 0.0 | 0.0 | 0.00 | 0.00 | 0.00 | 83 | 1025.1 |
| 20260831043742 | 77 | 266 | 0.0 | 0.0 | 0.00 | 0.00 | 0.00 | 83 | 1025.0 |
| 20260831043237 | 77 | 266 | 0.0 | 0.0 | 0.00 | 0.00 | 0.00 | 82 | 1024.9 |
| 20260831042736 | 77 | 266 | 0.0 | 0.0 | 0.00 | 0.00 | 0.00 | 82 | 1024.9 |
| 20260831042231 | 77 | 266 | 0.0 | 0.0 | 0.00 | 0.00 | 0.00 | 82 | 1024.9 |
| 20260831041726 | 77 | 266 | 0.0 | 0.0 | 0.00 | 0.00 | 0.00 | 82 | 1025.0 |
| 20260831041226 | 77 | 266 | 0.0 | 0.0 | 0.00 | 0.00 | 0.00 | 82 | 1025.2 |
| 20260831040721 | 77 | 266 | 0.0 | 0.0 | 0.00 | 0.00 | 0.00 | 82 | 1025.2 |
| 20260831040220 | 77 | 266 | 0.0 | 0.0 | 0.00 | 0.00 | 0.00 | 82 | 1025.2 |
| 20260831035719 | 77 | 266 | 0.0 | 0.0 | 0.00 | 0.00 | 0.00 | 82 | 1025.1 |
| 20260831035213 | 77 | 266 | 0.0 | 0.0 | 0.00 | 0.00 | 0.00 | 81 | 1025.0 |
| 20260831034712 | 78 | 266 | 0.0 | 0.0 | 0.00 | 0.00 | 0.00 | 82 | 1025.1 |
| 20260831034208 | 78 | 266 | 0.0 | 0.0 | 0.00 | 0.00 | 0.00 | 81 | 1025.2 |
| 20260831033703 | 78 | 266 | 0.0 | 0.0 | 0.00 | 0.00 | 0.00 | 81 | 1025.2 |
| 20260831033203 | 78 | 266 | 0.0 | 0.0 | 0.00 | 0.00 | 0.00 | 81 | 1025.2 |
| 20260831032658 | 78 | 266 | 0.0 | 0.0 | 0.00 | 0.00 | 0.00 | 80 | 1025.3 |
| 20260831032153 | 78 | 266 | 0.0 | 0.0 | 0.00 | 0.00 | 0.00 | 80 | 1025.3 |
| 20260831031648 | 78 | 266 | 0.0 | 0.0 | 0.00 | 0.00 | 0.00 | 80 | 1025.2 |
| 20260831031147 | 78 | 266 | 0.0 | 0.0 | 0.00 | 0.00 | 0.00 | 80 | 1025.3 |
| 20260831030646 | 79 | 266 | 0.0 | 0.0 | 0.00 | 0.00 | 0.00 | 79 | 1025.3 |
| 20260831030146 | 79 | 266 | 0.0 | 0.0 | 0.00 | 0.00 | 0.00 | 78 | 1025.3 |
| 20260831025644 | 79 | 266 | 0.0 | 0.0 | 0.00 | 0.00 | 0.00 | 78 | 1025.3 |
| 20260831025139 | 79 | 266 | 0.0 | 0.0 | 0.00 | 0.00 | 0.00 | 78 | 1025.3 |
| 20260831024635 | 79 | 266 | 0.0 | 0.0 | 0.00 | 0.00 | 0.00 | 77 | 1025.4 |
| 20260831024134 | 79 | 266 | 0.0 | 0.0 | 0.00 | 0.00 | 0.00 | 77 | 1025.3 |
| 20260831023632 | 79 | 266 | 0.0 | 0.0 | 0.00 | 0.00 | 0.00 | 77 | 1025.2 |
| 20260831023132 | 79 | 266 | 0.0 | 0.0 | 0.00 | 0.00 | 0.00 | 77 | 1025.5 |
| 20260831022627 | 80 | 266 | 0.0 | 0.0 | 0.00 | 0.00 | 0.00 | 77 | 1025.3 |
| 20260831022122 | 80 | 266 | 0.0 | 0.0 | 0.00 | 0.00 | 0.00 | 76 | 1025.4 |
| 20260831021620 | 80 | 266 | 0.0 | 0.0 | 0.00 | 0.00 | 0.00 | 76 | 1025.3 |
| 20260831021116 | 80 | 266 | 0.0 | 0.0 | 0.00 | 0.00 | 0.00 | 75 | 1025.2 |
| 20260831020612 | 80 | 265 | 0.0 | 0.0 | 0.00 | 0.00 | 0.00 | 75 | 1025.3 |
| 20260831020107 | 80 | 265 | 0.0 | 0.0 | 0.00 | 0.00 | 0.00 | 75 | 1025.2 |
| 20260831015603 | 80 | 265 | 0.0 | 0.0 | 0.00 | 0.00 | 0.00 | 74 | 1025.3 |
| 20260831015057 | 81 | 264 | 0.0 | 0.0 | 0.00 | 0.00 | 0.00 | 73 | 1025.0 |
| 20260831014552 | 81 | 264 | 0.0 | 0.0 | 0.00 | 0.00 | 0.00 | 72 | 1025.0 |
| 20260831014047 | 82 | 264 | 0.0 | 0.0 | 0.00 | 0.00 | 0.00 | 71 | 1025.0 |
| 20260831013543 | 82 | 264 | 0.0 | 0.0 | 0.00 | 0.00 | 0.00 | 70 | 1025.0 |
| 20260831013037 | 82 | 264 | 0.0 | 0.0 | 0.00 | 0.00 | 0.00 | 70 | 1024.9 |
| 20260831012532 | 81 | 263 | 0.0 | 0.0 | 0.00 | 0.00 | 0.00 | 71 | 1024.8 |
| 20260831012027 | 81 | 276 | 0.0 | 0.0 | 0.00 | 0.00 | 0.00 | 71 | 1025.0 |
| 20260831011527 | 81 | 276 | 0.0 | 0.0 | 0.00 | 0.00 | 0.00 | 71 | 1024.8 |
| 20260831011022 | 82 | 276 | 0.0 | 0.0 | 0.00 | 0.00 | 0.00 | 70 | 1024.7 |
| 20260831010523 | 82 | 276 | 0.0 | 0.0 | 0.00 | 0.00 | 0.00 | 70 | 1024.5 |
| 20260831010019 | 82 | 276 | 0.0 | 0.0 | 0.00 | 0.00 | 0.00 | 70 | 1024.8 |
| 20260831005520 | 82 | 276 | 0.0 | 0.0 | 0.00 | 0.00 | 0.00 | 69 | 1024.5 |
| 20260831005019 | 82 | 276 | 0.0 | 0.0 | 0.00 | 0.00 | 0.00 | 69 | 1024.5 |
| 20260831004515 | 82 | 276 | 0.0 | 0.0 | 0.00 | 0.00 | 0.00 | 68 | 1024.4 |
| 20260831004010 | 82 | 276 | 0.0 | 0.0 | 0.00 | 0.00 | 0.00 | 68 | 1024.5 |
| 20260831003507 | 82 | 276 | 0.0 | 0.0 | 0.00 | 0.00 | 0.00 | 68 | 1024.3 |
| 20260831003001 | 83 | 276 | 0.0 | 0.0 | 0.00 | 0.00 | 0.00 | 67 | 1024.4 |
| 20260831002500 | 83 | 276 | 0.0 | 0.0 | 0.00 | 0.00 | 0.00 | 67 | 1024.5 |
| 20260831001955 | 84 | 276 | 0.0 | 0.0 | 0.00 | 0.00 | 0.00 | 66 | 1024.3 |
| 20260831001450 | 84 | 276 | 0.0 | 0.0 | 0.00 | 0.00 | 0.00 | 65 | 1024.7 |
| 20260831000948 | 84 | 276 | 0.0 | 0.0 | 0.00 | 0.00 | 0.00 | 65 | 1024.4 |
| 20260831000443 | 84 | 276 | 0.0 | 0.0 | 0.00 | 0.00 | 0.00 | 64 | 1024.2 |
| 20260830235941 | 85 | 277 | 0.0 | 0.0 | 0.00 | 0.00 | 0.00 | 63 | 1024.1 |
| 20260830235436 | 85 | 277 | 0.0 | 0.0 | 0.00 | 0.00 | 0.00 | 62 | 1024.2 |
| 20260830234932 | 85 | 277 | 0.0 | 0.0 | 0.00 | 0.00 | 0.00 | 61 | 1024.2 |
| 20260830234427 | 86 | 278 | 0.0 | 0.0 | 0.00 | 0.00 | 0.00 | 61 | 1023.9 |
| 20260830233923 | 86 | 277 | 0.0 | 0.0 | 0.00 | 0.00 | 0.00 | 60 | 1024.2 |
| 20260830233418 | 86 | 289 | 0.0 | 0.0 | 0.00 | 0.00 | 0.00 | 60 | 1024.0 |
| 20260830232913 | 87 | 289 | 0.0 | 0.0 | 0.00 | 0.00 | 0.00 | 60 | 1023.9 |
| 20260830232409 | 87 | 279 | 0.0 | 0.0 | 0.00 | 0.00 | 0.00 | 59 | 1024.1 |
| 20260830231906 | 88 | 235 | 0.0 | 0.0 | 0.00 | 0.00 | 0.00 | 56 | 1024.1 |
| 20260830231401 | 88 | 280 | 0.0 | 0.0 | 0.00 | 0.00 | 0.00 | 57 | 1023.9 |
| 20260830230900 | 88 | 218 | 0.0 | 0.0 | 0.00 | 0.00 | 0.00 | 55 | 1024.1 |
| 20260830230355 | 89 | 149 | 0.0 | 0.0 | 0.00 | 0.00 | 0.00 | 55 | 1023.9 |
| 20260830225854 | 89 | 185 | 0.0 | 0.0 | 0.00 | 0.00 | 0.00 | 56 | 1024.0 |
| 20260830225350 | 89 | 135 | 0.0 | 0.0 | 0.00 | 0.00 | 0.00 | 55 | 1023.9 |
| 20260830224845 | 89 | 279 | 0.0 | 0.0 | 0.00 | 0.00 | 0.00 | 56 | 1024.2 |
| 20260830224338 | 89 | 253 | 0.0 | 0.0 | 0.00 | 0.00 | 0.00 | 55 | 1023.8 |
| 20260830223836 | 89 | 266 | 0.0 | 0.0 | 0.00 | 0.00 | 0.00 | 55 | 1023.9 |
| 20260830223332 | 89 | 277 | 0.0 | 0.0 | 0.00 | 0.00 | 0.00 | 57 | 1024.1 |
| 20260830222831 | 90 | 278 | 0.0 | 0.0 | 0.00 | 0.00 | 0.00 | 55 | 1024.0 |
| 20260830222326 | 90 | 208 | 0.0 | 0.0 | 0.00 | 0.00 | 0.00 | 54 | 1024.0 |
| 20260830221821 | 90 | 256 | 0.0 | 0.0 | 0.00 | 0.00 | 0.00 | 54 | 1024.1 |
| 20260830221319 | 90 | 278 | 0.0 | 0.0 | 0.00 | 0.00 | 0.00 | 54 | 1023.9 |
| 20260830220818 | 89 | 270 | 0.0 | 0.0 | 0.00 | 0.00 | 0.00 | 54 | 1024.0 |
| 20260830220318 | 89 | 270 | 0.0 | 0.0 | 0.00 | 0.00 | 0.00 | 55 | 1023.8 |
| 20260830215816 | 88 | 220 | 0.0 | 0.0 | 0.00 | 0.00 | 0.00 | 57 | 1023.9 |
| 20260830215311 | 89 | 311 | 0.0 | 0.0 | 0.00 | 0.00 | 0.00 | 57 | 1023.9 |
| 20260830214806 | 90 | 207 | 0.0 | 0.0 | 0.00 | 0.00 | 0.00 | 54 | 1023.9 |
| 20260830214301 | 89 | 312 | 0.0 | 0.0 | 0.00 | 0.00 | 0.00 | 55 | 1024.0 |
| 20260830213800 | 90 | 300 | 0.0 | 0.0 | 0.00 | 0.00 | 0.00 | 56 | 1023.9 |
| 20260830213255 | 90 | 196 | 0.0 | 0.0 | 0.00 | 0.00 | 0.00 | 55 | 1024.0 |
| 20260830212751 | 89 | 168 | 1.0 | 2.0 | 0.00 | 0.00 | 0.00 | 57 | 1024.2 |
| 20260830212247 | 90 | 294 | 0.0 | 0.0 | 0.00 | 0.00 | 0.00 | 58 | 1024.2 |
| 20260830211746 | 89 | 273 | 0.0 | 0.0 | 0.00 | 0.00 | 0.00 | 56 | 1024.4 |
| 20260830211245 | 90 | 204 | 0.0 | 0.0 | 0.00 | 0.00 | 0.00 | 57 | 1024.3 |
| 20260830210741 | 90 | 264 | 0.0 | 0.0 | 0.00 | 0.00 | 0.00 | 57 | 1024.3 |
| 20260830210240 | 89 | 205 | 2.0 | 3.0 | 0.00 | 0.00 | 0.00 | 56 | 1024.3 |
| 20260830205738 | 90 | 311 | 1.0 | 2.0 | 0.00 | 0.00 | 0.00 | 58 | 1024.5 |
| 20260830205233 | 89 | 202 | 0.0 | 0.0 | 0.00 | 0.00 | 0.00 | 59 | 1024.2 |
| 20260830204728 | 89 | 314 | 0.0 | 0.0 | 0.00 | 0.00 | 0.00 | 58 | 1024.4 |
| 20260830204227 | 89 | 306 | 0.0 | 0.0 | 0.00 | 0.00 | 0.00 | 59 | 1024.4 |
| 20260830203723 | 88 | 237 | 0.0 | 0.0 | 0.00 | 0.00 | 0.00 | 61 | 1024.6 |
| 20260830203219 | 87 | 236 | 0.0 | 0.0 | 0.00 | 0.00 | 0.00 | 59 | 1024.4 |
| 20260830202718 | 88 | 298 | 0.0 | 0.0 | 0.00 | 0.00 | 0.00 | 60 | 1024.7 |
| 20260830202214 | 89 | 257 | 1.0 | 2.0 | 0.00 | 0.00 | 0.00 | 59 | 1024.5 |
| 20260830201713 | 90 | 167 | 3.0 | 5.0 | 0.00 | 0.00 | 0.00 | 57 | 1024.8 |
| 20260830201208 | 90 | 174 | 0.0 | 0.0 | 0.00 | 0.00 | 0.00 | 56 | 1024.7 |
| 20260830200704 | 90 | 114 | 0.0 | 0.0 | 0.00 | 0.00 | 0.00 | 57 | 1024.5 |
| 20260830200203 | 90 | 135 | 4.0 | 5.0 | 0.00 | 0.00 | 0.00 | 57 | 1024.7 |
| 20260830195658 | 89 | 84 | 0.0 | 2.0 | 0.00 | 0.00 | 0.00 | 59 | 1024.9 |
| 20260830195156 | 88 | 194 | 2.0 | 3.0 | 0.00 | 0.00 | 0.00 | 59 | 1025.0 |
| 20260830194656 | 87 | 239 | 0.0 | 2.0 | 0.00 | 0.00 | 0.00 | 60 | 1025.0 |
| 20260830194155 | 87 | 196 | 0.0 | 0.0 | 0.00 | 0.00 | 0.00 | 60 | 1025.1 |
| 20260830193650 | 87 | 281 | 0.0 | 0.0 | 0.00 | 0.00 | 0.00 | 59 | 1025.1 |
| 20260830193145 | 87 | 281 | 0.0 | 0.0 | 0.00 | 0.00 | 0.00 | 61 | 1025.2 |
| 20260830192640 | 88 | 264 | 0.0 | 0.0 | 0.00 | 0.00 | 0.00 | 60 | 1025.2 |